Theta_e
308 306 309 310 312 315 317 319 321 322 322 323 323 323 323 323 324 323 324 325 325 327 328 328 329 329 327 328 327 327 329 330 329 331 336 339 342 342 342 339 337 335 335 333
307 307 308 310 312 312 313 314 316 316 317 320 322 323 323 323 323 324 324 325 325 326 327 327 329 327 327 328 329 329 330 331 331 334 337 340 342 342 342 340 338 337 333 333
310 310 310 310 311 313 313 313 315 316 316 316 316 316 317 318 319 320 321 323 325 327 327 328 328 329 328 328 328 330 331 332 334 338 341 342 341 340 340 341 338 334 333 332
305 306 308 311 309 312 313 314 314 314 314 315 316 316 317 318 319 319 320 321 323 324 324 325 327 328 327 328 331 332 332 333 338 342 342 341 339 340 337 333 333 333 332 333
306 306 307 308 310 312 311 314 315 315 315 314 315 314 316 317 319 318 319 322 323 324 326 326 328 328 328 330 332 333 333 337 339 340 339 337 334 334 335 335 334 334 334 334
306 307 306 306 308 308 309 313 313 314 313 315 315 315 317 316 317 317 320 323 324 324 324 326 327 328 331 334 334 333 333 337 339 338 337 335 337 336 334 334 333 332 332 331
308 307 307 308 307 307 307 307 310 312 315 316 315 315 317 317 318 317 317 320 322 324 325 327 327 331 334 335 335 334 336 338 337 335 336 335 335 333 334 333 332 331 332 329
313 314 313 313 309 307 305 306 310 313 315 316 316 317 317 316 317 318 319 320 322 324 324 328 331 334 336 336 335 335 336 337 337 335 335 334 334 334 333 332 331 330 330 328
313 313 310 309 309 308 309 306 307 310 312 313 316 316 318 318 318 318 318 320 323 324 327 334 336 337 337 337 336 334 335 337 337 335 334 334 333 333 328 328 330 329 328 326
310 310 310 309 309 308 310 311 309 308 313 314 315 317 318 317 318 317 318 318 322 332 336 337 338 338 338 337 335 333 336 336 335 335 333 329 325 329 331 330 330 329 327 325
309 309 310 311 310 307 312 312 310 308 310 314 315 316 316 317 317 318 321 321 331 337 337 338 338 338 337 336 333 335 335 333 333 331 327 328 330 330 330 331 329 328 329 327
311 310 312 309 309 311 312 313 312 309 309 312 315 315 316 315 316 318 320 333 336 337 338 338 338 337 338 335 335 334 333 333 332 329 330 330 328 329 330 330 329 328 327 327
309 308 309 308 311 312 314 316 316 314 308 310 313 315 316 316 317 319 323 335 336 337 337 338 338 338 337 336 336 336 335 333 333 331 330 329 328 330 331 330 329 328 327 329
309 310 311 308 311 312 314 315 314 315 317 312 313 313 315 317 317 317 327 335 336 336 337 338 338 338 337 336 337 336 335 332 332 331 330 329 329 329 330 330 328 328 328 329
312 312 311 311 312 312 314 315 314 314 315 317 318 317 317 317 316 317 327 334 335 336 337 337 337 337 336 336 336 336 334 332 331 330 330 328 329 330 330 330 330 327 329 329
308 312 312 313 312 313 315 316 314 313 314 314 315 317 318 318 328 328 333 335 335 336 336 336 337 336 336 337 336 335 331 332 330 331 330 330 330 330 330 329 329 328 329 330
310 312 312 312 314 316 316 314 314 313 314 317 318 317 318 326 330 331 334 335 335 336 336 336 336 336 336 336 332 331 331 331 330 331 330 331 330 330 330 330 329 329 329 330
308 308 310 312 314 316 315 319 322 323 319 316 316 316 318 326 331 330 333 335 335 335 335 336 336 336 336 336 331 330 331 330 329 330 331 331 330 331 331 330 328 329 329 330
308 308 311 314 319 317 318 318 318 320 323 326 328 327 326 329 330 330 330 334 335 335 336 336 336 336 336 334 330 329 330 329 328 330 331 331 330 330 330 330 330 328 328 327
309 309 312 313 318 319 317 315 314 316 323 325 326 328 327 328 332 329 330 334 334 335 335 335 335 336 336 332 329 328 329 328 327 330 332 331 330 330 330 330 330 327 327 327
314 312 312 313 317 319 313 311 313 326 327 321 323 324 328 330 329 329 331 333 335 335 335 335 336 335 335 331 329 328 329 328 327 329 332 332 329 330 330 330 329 329 328 327
313 316 317 315 319 318 310 312 317 316 317 321 321 322 325 327 329 330 332 332 334 335 335 335 335 335 333 330 328 328 328 327 328 329 331 332 329 329 330 329 329 330 329 329
315 313 312 310 313 310 311 312 312 314 317 317 318 320 326 325 327 329 331 332 334 334 335 335 335 335 331 330 328 327 327 326 328 330 331 333 330 331 330 328 328 329 329 328
312 313 314 311 312 313 311 312 312 313 314 315 316 318 324 323 325 326 328 333 333 335 336 335 335 333 330 329 328 327 326 326 327 329 331 332 331 331 327 329 327 328 329 328
311 311 312 314 312 311 313 311 311 313 313 313 314 316 320 322 323 324 325 331 334 332 332 334 335 333 331 329 328 327 326 325 327 328 330 330 330 330 328 328 326 328 330 330
311 311 311 311 310 310 310 311 312 312 314 314 313 315 321 322 323 324 328 331 334 336 336 334 335 335 332 330 328 326 327 325 326 327 329 330 330 329 328 327 327 329 331 332
Wind_Speed
5 5 18 23 16 14 7 17 8 5 11 14 19 23 18 20 18 21 30 32 39 42 42 44 31 33 28 24 28 24 21 21 23 25 31 32 29 25 23 20 21 21 20 18
5 19 12 7 6 11 13 15 14 9 9 9 13 22 23 22 19 29 33 33 38 39 41 43 34 32 27 24 20 21 21 22 24 27 30 34 32 24 21 20 19 18 13 13
10 5 12 15 12 15 16 18 14 10 10 22 13 12 17 20 17 28 30 35 35 29 32 35 37 31 29 24 22 22 24 23 21 23 24 24 24 21 21 21 19 17 16 16
9 10 14 10 21 13 19 9 12 15 11 16 7 17 21 22 25 21 21 30 34 35 40 39 38 34 28 25 22 22 20 19 19 21 20 20 20 23 20 15 15 16 17 19
8 5 1 12 15 12 20 11 13 14 10 16 17 7 29 7 18 12 14 23 34 39 37 34 33 31 27 23 23 20 17 18 18 17 15 18 19 16 14 17 13 13 15 17
13 15 9 9 10 9 5 9 12 16 3 11 9 10 28 16 22 18 7 29 32 32 35 29 19 20 25 24 22 18 17 20 19 18 20 18 19 19 14 15 15 13 13 14
8 13 14 15 12 10 5 2 2 3 7 15 11 9 23 7 5 10 14 25 35 35 31 22 20 25 29 26 22 19 22 24 22 22 20 19 19 16 15 14 12 12 12 15
2 3 5 2 1 5 6 9 5 7 4 8 7 12 16 16 26 31 36 35 37 37 25 21 23 31 31 27 23 24 26 26 24 23 20 17 18 14 13 11 10 11 12 10
2 4 3 10 6 4 5 9 7 5 14 1 6 9 18 23 24 21 21 24 32 26 22 28 33 33 30 26 24 24 30 27 25 22 18 15 14 12 11 9 7 8 8 7
2 2 6 5 5 6 8 3 4 3 6 8 6 6 10 7 14 10 12 17 17 19 27 33 34 32 28 24 23 28 27 26 23 20 14 11 10 9 7 5 5 6 7 8
3 4 3 5 3 7 1 4 5 4 3 8 6 9 8 12 10 12 17 17 27 35 35 37 34 30 26 24 28 26 24 24 21 15 12 13 10 6 4 4 5 8 8 5
2 3 4 9 16 13 6 9 5 5 11 5 11 16 9 9 10 8 10 16 32 39 39 37 35 32 29 30 29 26 25 22 17 13 15 12 8 7 6 3 7 11 10 8
5 1 4 9 3 3 4 5 1 4 5 19 8 7 8 12 11 21 7 18 26 34 36 36 34 33 32 31 28 26 22 19 18 14 15 11 7 7 5 5 9 14 12 9
2 3 5 5 5 6 8 6 5 0 2 12 18 15 24 19 21 21 13 15 31 35 40 38 36 35 32 31 28 26 21 19 19 16 13 11 8 6 5 7 10 16 15 10
5 4 8 13 17 17 18 18 13 9 8 3 7 8 18 17 17 18 20 30 27 30 33 38 39 37 34 32 28 25 21 19 20 18 13 10 7 7 7 9 11 16 15 13
6 4 6 14 18 18 20 18 14 15 11 11 17 19 17 20 24 9 28 33 33 33 35 37 40 37 35 32 28 27 22 22 19 19 14 10 8 10 10 10 10 16 12 15
6 3 2 6 12 6 6 13 16 6 8 3 7 6 14 13 10 11 24 35 36 36 37 40 41 37 35 31 27 28 25 22 19 19 17 12 11 11 10 9 10 13 14 17
6 6 4 6 8 4 2 10 8 2 10 13 12 18 18 8 10 20 12 24 32 36 37 41 40 36 33 30 27 27 26 23 19 20 16 11 11 11 13 8 9 12 15 15
14 6 3 3 3 4 4 6 6 6 6 4 10 17 6 11 11 17 11 20 24 40 43 41 38 35 34 32 29 28 28 25 20 20 15 11 12 14 13 10 9 11 12 12
13 11 4 3 4 3 2 13 14 13 6 4 15 5 8 11 2 4 14 15 24 37 39 39 37 35 36 34 31 29 30 25 22 20 16 13 13 13 12 10 9 11 12 11
1 1 10 10 5 3 12 21 32 6 6 23 19 20 11 8 7 7 2 9 34 41 39 37 39 39 38 35 33 30 30 25 21 20 17 16 13 12 9 10 11 11 11 13
2 2 2 2 5 3 22 16 8 9 20 19 25 18 17 18 11 5 4 6 26 40 40 40 42 41 38 35 34 29 28 20 23 22 18 19 16 14 10 8 12 11 10 13
3 4 3 2 2 9 8 11 18 20 18 23 25 14 22 23 20 13 6 13 21 34 38 40 42 41 39 35 32 28 23 23 26 25 20 22 19 15 11 9 12 11 11 13
3 3 1 4 6 9 11 17 22 28 25 24 20 11 27 17 20 22 28 19 23 24 27 34 39 40 39 36 32 22 24 26 26 28 22 24 19 16 9 12 11 10 8 9
3 6 6 3 4 13 5 25 26 28 24 29 32 28 30 17 25 28 29 27 23 12 7 14 31 37 37 36 32 24 26 28 26 30 25 24 21 16 11 14 12 10 5 1
2 3 2 3 12 9 16 23 27 28 30 30 34 33 31 21 24 26 29 28 23 17 13 12 17 32 35 35 33 28 29 30 27 33 29 26 23 18 13 16 16 12 8 4
Wind_Direction
202 181 216 210 217 234 257 242 269 209 209 233 244 264 267 253 251 263 268 267 262 265 272 274 277 255 247 256 244 252 267 256 254 237 224 221 211 202 204 203 208 218 224 231
206 230 228 246 229 228 252 266 268 293 284 256 246 253 264 264 262 254 259 260 259 265 276 280 260 238 242 252 249 252 255 250 243 234 221 219 213 208 215 218 229 244 229 242
215 234 215 240 239 244 233 237 253 260 305 290 296 282 284 276 260 264 272 273 275 274 278 284 275 244 241 244 249 248 237 231 233 221 209 205 212 219 227 227 228 227 243 250
252 231 253 246 231 235 248 247 244 251 259 260 212 277 265 268 265 265 248 256 264 275 275 275 276 237 234 237 231 226 225 224 211 204 202 201 209 202 199 204 213 222 239 246
226 293 191 238 245 235 253 253 236 237 235 248 250 293 267 260 261 250 253 262 268 265 272 274 263 245 230 220 215 212 213 203 193 190 193 185 180 188 207 214 210 218 227 241
227 239 247 244 261 262 318 242 240 258 226 251 213 202 272 246 251 251 224 247 253 272 280 271 247 222 205 202 203 200 189 185 178 178 176 176 189 191 193 197 206 213 236 262
234 241 242 246 258 268 221 58 248 253 212 236 170 208 235 256 272 230 237 249 256 260 265 256 232 196 193 194 190 181 181 174 169 169 171 178 186 195 193 196 210 235 259 273
188 286 181 35 137 249 188 180 194 192 205 241 261 230 244 231 260 268 267 256 268 265 263 235 204 189 187 183 179 178 176 171 165 171 179 184 196 191 188 201 229 254 261 254
139 229 331 317 311 148 305 220 201 292 273 275 228 274 279 276 277 274 267 263 257 264 228 196 183 182 178 175 175 175 168 167 170 176 180 183 195 204 202 211 240 264 246 232
169 278 253 291 328 240 198 246 188 197 207 240 252 251 236 232 248 273 268 256 219 186 179 177 178 176 171 170 166 165 168 169 175 181 186 185 183 173 184 222 271 241 205 166
343 142 294 349 247 232 240 217 193 160 210 221 257 251 196 253 244 274 283 251 175 168 174 174 172 169 166 165 162 164 166 168 170 169 156 137 151 165 223 249 256 198 179 166
309 121 276 254 260 252 269 282 175 214 234 248 241 247 304 252 288 293 294 174 164 170 169 169 169 165 164 160 160 162 161 163 158 150 156 158 169 197 223 257 187 177 152 136
352 345 305 319 325 199 248 146 352 287 206 238 248 270 222 276 297 286 168 170 154 155 159 164 165 164 164 161 160 160 159 161 161 151 157 174 188 216 229 211 186 178 165 158
61 246 218 230 274 325 276 270 303 306 266 243 242 270 273 275 271 283 169 187 155 156 160 163 166 167 165 164 163 164 160 166 168 164 166 181 208 225 212 174 170 178 177 181
175 242 237 257 267 273 266 263 246 237 250 249 275 293 273 284 262 270 219 165 155 152 156 162 167 169 167 167 167 169 168 168 172 174 179 192 207 194 178 180 179 178 187 186
171 254 267 275 270 259 245 244 235 237 235 250 256 274 282 267 298 229 178 163 162 161 162 165 170 170 170 168 169 172 173 172 175 185 179 190 194 169 158 165 175 183 185 178
187 213 260 271 336 331 221 236 223 197 181 206 240 237 298 312 357 324 176 166 161 164 164 169 172 173 173 171 168 175 177 176 181 189 185 194 183 173 164 170 181 189 190 185
214 180 215 278 266 235 196 40 63 304 227 213 238 253 262 263 37 329 157 172 164 161 165 173 174 176 175 174 172 173 177 181 184 187 186 187 186 184 173 175 183 188 195 201
210 193 269 257 309 280 268 41 360 356 288 330 299 258 215 55 24 328 5 168 178 170 173 177 178 177 176 176 173 175 180 182 186 183 186 186 195 194 184 190 190 191 191 198
197 207 206 289 285 284 326 330 305 298 246 351 334 20 105 67 78 276 332 164 183 178 178 179 181 181 177 178 176 178 181 185 186 187 187 182 186 190 189 190 192 189 186 190
200 142 225 243 254 209 355 316 286 192 358 322 323 307 85 75 263 261 309 94 181 183 182 184 183 182 180 179 181 181 183 188 190 192 191 189 179 174 173 186 188 180 177 186
315 261 275 245 232 302 359 347 49 322 325 324 324 337 42 49 33 181 136 62 180 182 183 184 183 183 181 181 183 183 185 188 188 193 195 189 179 173 174 192 188 190 193 193
12 339 333 7 291 279 319 345 330 334 349 329 317 352 58 39 31 61 85 74 155 176 177 183 186 182 181 183 187 183 184 183 192 193 195 191 187 182 184 192 183 183 189 190
271 333 268 203 216 336 324 337 341 341 334 319 318 33 64 15 46 47 55 85 120 135 163 180 184 183 183 187 188 187 178 186 192 192 194 190 188 183 180 181 184 181 177 195
255 321 304 259 289 328 260 329 335 320 324 337 352 20 47 36 41 44 42 56 81 138 149 168 190 188 190 190 191 185 178 190 195 195 197 192 190 188 187 188 188 190 189 210
318 274 341 286 325 312 301 316 321 322 338 346 338 2 37 42 37 35 37 43 51 70 73 163 193 200 197 196 194 188 184 192 198 196 198 197 194 193 196 191 188 193 205 216